Chicago Midway, IL

8:01 PM CST on December 06, 2019 (GMT -0600)
Chicago-Midway

Weather History for KMDW - October, 2019

Change the Weather History Date:

Friday, October 25, 2019

  Actual Average Record
Temperature  
Mean Temperature 46 °F 51 °F  
Max Temperature 50 °F 59 °F 79 °F (1989)
Min Temperature 41 °F 43 °F 25 °F (1962)
Degree Days  
Heating Degree Days 19 14  
Month to date heating degree days 257 256  
Since 1 July heating degree days 258 338  
Cooling Degree Days 0 0  
Month to date cooling degree days 21 13  
Year to date cooling degree days 1131 1042  
Moisture  
Dew Point 35 °F    
Average Humidity 65    
Maximum Humidity 80    
Minimum Humidity 40    
Precipitation  
Precipitation 0.00 in 0.11 in 1.87 in (1932)
Month to date precipitation 1.58 2.56  
Year to date precipitation 39.40 32.42  
Sea Level Pressure  
Sea Level Pressure 30.31 in    
Wind  
Wind Speed 4 mph (NW)    
Max Wind Speed 10 mph    
Max Gust Speed 14 mph    
Visibility 10 miles    
Events      
T = Trace of Precipitation, MM = Missing Value Source: NWS Daily Summary

Daily Weather History Graph

Daily Weather History Graph

Search for Another Location

Airport or City:

Astronomy

Oct. 25, 2019 Rise Set
Actual Time 7:14 AM CDT 5:54 PM CDT
Civil Twilight 6:46 AM CDT 6:23 PM CDT
Nautical Twilight 6:13 AM CDT 6:55 PM CDT
Astronomical Twilight 5:41 AM CDT 7:28 PM CDT
Moon 3:52 AM CDT (10/25) 5:00 PM CDT (10/25)
Length of Visible Light 11h 37m
Length of Day
10h 40m
Waning Crescent, 9% of the Moon is Illuminated
Oct 25
Waning Crescent
Oct 27
New
Nov 4
First Quarter
Nov 12
Full
Nov 19
Last Quarter

Hourly Weather History & Observations

Time (CDT) Temp. Windchill Dew Point Humidity Pressure Visibility Wind Dir Wind Speed Gust Speed Precip Events Conditions
12:53 AM 45.0 °F 41.8 °F 37.0 °F 74% 30.35 in 10.0 mi NNW 5.8 mph - N/A   Overcast
1:53 AM 45.0 °F 42.6 °F 37.0 °F 74% 30.35 in 10.0 mi NNW 4.6 mph - N/A   Overcast
2:53 AM 45.0 °F 43.5 °F 37.0 °F 74% 30.34 in 10.0 mi NNW 3.5 mph - N/A   Overcast
3:53 AM 45.0 °F 43.5 °F 37.0 °F 74% 30.35 in 10.0 mi NW 3.5 mph - N/A   Overcast
4:53 AM 46.0 °F 43.9 °F 36.0 °F 68% 30.36 in 10.0 mi NNW 4.6 mph - N/A   Overcast
5:53 AM 46.0 °F 43.1 °F 36.0 °F 68% 30.36 in 10.0 mi NNW 5.8 mph - N/A   Overcast
6:05 AM 46.0 °F 43.9 °F 36.0 °F 68% 30.34 in 10.0 mi North 4.6 mph - N/A   Overcast
7:53 AM 46.0 °F 43.1 °F 37.0 °F 71% 30.36 in 10.0 mi NNW 5.8 mph - N/A   Overcast
8:53 AM 46.9 °F - 36.0 °F 66% 30.36 in 10.0 mi NNW 6.9 mph - N/A   Overcast
9:53 AM 46.9 °F - 37.0 °F 68% 30.36 in 10.0 mi NW 6.9 mph - N/A   Overcast
10:53 AM 48.0 °F - 37.9 °F 68% 30.36 in 10.0 mi NW 5.8 mph - N/A   Overcast
11:53 AM 48.0 °F - 35.1 °F 61% 30.35 in 10.0 mi NNW 5.8 mph - N/A   Overcast
12:53 PM 48.9 °F - 34.0 °F 56% 30.34 in 10.0 mi WNW 8.1 mph - N/A   Overcast
1:53 PM 50.0 °F - 34.0 °F 54% 30.31 in 10.0 mi West 5.8 mph - N/A   Mostly Cloudy
2:53 PM 50.0 °F - 34.0 °F 54% 30.28 in 10.0 mi West 5.8 mph - N/A   Mostly Cloudy
3:53 PM 48.9 °F - 32.0 °F 52% 30.28 in 10.0 mi Calm Calm - N/A   Mostly Cloudy
4:53 PM 48.9 °F - 32.0 °F 52% 30.25 in 10.0 mi NNW 6.9 mph - N/A   Mostly Cloudy
5:53 PM 46.9 °F - 30.9 °F 54% 30.27 in 10.0 mi Calm Calm - N/A   Mostly Cloudy
6:53 PM 45.0 °F 41.2 °F 36.0 °F 71% 30.27 in 10.0 mi ESE 6.9 mph - N/A   Mostly Cloudy
7:53 PM 46.0 °F - 36.0 °F 68% 30.27 in 10.0 mi Calm Calm - N/A   Mostly Cloudy
8:53 PM 45.0 °F - 36.0 °F 71% 30.27 in 10.0 mi Calm Calm - N/A   Mostly Cloudy
9:53 PM 44.1 °F - 36.0 °F 73% 30.26 in 10.0 mi Calm Calm - N/A   Mostly Cloudy
10:53 PM 44.1 °F 42.5 °F 37.0 °F 76% 30.25 in 10.0 mi South 3.5 mph - N/A   Mostly Cloudy
11:53 PM 43.0 °F - 37.0 °F 80% 30.23 in 10.0 mi Calm Calm - N/A   Mostly Cloudy